[[{"header":{"parameterUnit":"m.s-1","parameterCategory":1,"la1":30.2991,"la2":30.254,"lo1":-89.0895,"lo2":-89.0444,"dy":0.0017,"dx":0.0017,"nx":28,"ny":28,"refTime":"2025-07-23T09:00:00:Z","depth":0,"parameterNumber":2,"parameterNumberName":"U-component_of_WINDS"},"data":[0,0,0,0,0,0,0,0,0,0,0,0,0,0,0,0,0,0,0,0,0,0,0,0,0,0,0,0,0,0,0,0,0,0,0,0,0,0,0,0,0,0,0,0,0,0,0,0,0,0,0,0,0,0,0,0,0,0,-3.9696,-3.9689,0,-3.9036,-3.9028,-3.902,-3.8645,-3.8644,-3.8643,-3.8642,-3.7931,-3.7913,-3.7896,0,0,0,0,0,0,0,0,0,0,0,0,0,-4.06,-4.0585,-3.9697,-3.9689,-3.9681,-3.9037,-3.9028,-3.9018,-3.8645,-3.8644,-3.8642,-3.8641,-3.7937,-3.7916,-3.7894,0,0,0,0,0,0,0,0,0,0,0,0,0,-4.01,-4.0581,-3.9698,-3.9418,-3.9386,-3.9039,-3.9027,-3.9016,-3.8646,-3.8644,-3.8642,-3.864,-3.7944,-3.7918,-3.7891,-3.7762,0,0,-3.781,-3.7798,0,0,0,0,0,0,0,0,-4.0129,-4.0067,-3.9467,-3.9436,-3.94,-3.8922,-3.9085,-3.8594,-3.8646,-3.8926,-3.8641,-3.8639,-3.826,-3.8207,-3.8085,-3.7729,-3.7698,-3.7807,-3.7791,-3.7779,-3.7772,0,0,0,0,0,0,0,-4.0164,-4.0093,-3.9434,-3.9458,-3.9418,-3.9312,-3.924,-3.899,-3.8609,-3.8901,-3.8872,-3.8801,-3.8241,-3.8112,-3.8066,-3.7688,-3.7808,-3.7784,-3.7768,-3.7757,-3.7184,-3.7185,0,0,0,0,0,0,-4.0248,-4.0124,-3.9455,-3.9414,-3.9769,-3.9298,-3.9216,-3.9076,-3.8611,-3.854,-3.8803,-3.8786,-3.8159,-3.8098,-3.804,-3.7854,-3.778,-3.7755,-3.7739,-3.7183,-3.7184,-3.7185,0,0,0,0,0,0,-4.0269,-4.0192,-3.9481,-3.9761,-3.9663,-3.9285,-3.913,-3.9064,-3.8936,-3.8538,-3.8465,-3.8745,-3.8155,-3.8077,-3.7835,-3.7824,-3.7743,-3.7718,-3.7183,-3.7184,-3.7185,-3.7487,0,0,0,0,0,0,-4.0297,-4.0202,-4.0158,-3.9764,-3.965,-3.93,-3.913,-3.9053,-3.8895,-3.8866,-3.8463,-3.8394,-3.8148,-3.7877,-3.7809,-3.7786,-3.7697,-3.7181,-3.7183,-3.7185,-3.7476,-3.7498,-3.7517,0,0,0,0,0,-4.033,-4.0262,-4.0158,-4.0079,-3.9589,-3.93,-3.9233,-3.8961,-3.8896,-3.8842,-3.8586,-3.8407,-3.7838,-3.7855,-3.7775,-3.7745,-3.7181,-3.7183,-3.7184,-3.7466,-3.7494,-3.7517,0,0,0,0,0,0,-4.0652,-4.0205,-4.0084,-3.9889,-3.9638,-3.9238,-3.9162,-3.8998,-3.875,-3.8732,-3.8393,-3.8305,-3.8094,-3.7893,-3.7921,-3.7592,-3.7489,-3.7475,-3.7731,-3.7753,-3.7774,-3.7824,-3.7675,0,0,0,0,0,-4.0703,-4.0519,-4.0132,-3.9996,-3.9878,-3.9544,-3.9407,-3.922,-3.8939,-3.8827,-3.8553,-3.8279,-3.8036,-3.7884,-3.7639,-3.7446,-3.7347,-3.7384,-3.7405,-3.7424,-3.7414,-3.7291,-3.7301,-3.7191,-3.7191,-3.7191,0,0,-4.08,-4.0534,-4.0435,-4.0055,-3.9837,-3.9642,-3.9455,-3.9256,-3.9104,-3.8792,-3.855,-3.834,-3.8009,-3.7791,-3.768,-3.7617,-3.7424,-3.7426,-3.7445,-3.7423,-3.7294,-3.7305,-3.7315,-3.7193,-3.7192,-3.7192,0,0,-4.088,-4.0664,-4.0526,-4.0314,-3.9991,-3.9769,-3.9737,-3.9361,-3.9213,-3.8967,-3.8728,-3.8536,-3.8129,-3.7903,-3.7735,-3.773,-3.7553,-3.7658,-3.7764,-3.7649,-3.7657,-3.7663,-3.7657,-3.7659,-3.7651,-3.7651,-3.7652,0,-4.1039,-4.0748,-4.0472,-4.0289,-4.0125,-3.9846,-3.9697,-3.95,-3.911,-3.8997,-3.8936,-3.8419,-3.8176,-3.7899,-3.7899,-3.7773,-3.7717,-3.7701,-3.7681,-3.7684,-3.7685,-3.7674,-3.7673,-3.7666,-3.7664,-3.7663,-3.7662,0,-4.0957,-4.0758,-4.0683,-4.0327,-4.0153,-3.9988,-3.9677,-3.9532,-3.936,-3.9141,-3.8889,-3.859,-3.828,-3.8199,-3.8024,-3.7895,-3.7866,-3.7748,-3.7636,-3.7715,-3.7699,-3.7693,-3.7687,-3.7682,-3.7678,-3.7674,0,0,-4.1217,-4.0715,-4.0692,-4.0525,-4.0149,-3.9983,-3.9801,-3.9509,-3.9389,-3.9127,-3.896,-3.8623,-3.8512,-3.8321,-3.8117,-3.8017,-3.8026,-3.7907,-3.7894,-3.7937,-3.7858,-3.7949,-3.795,-3.7909,-3.7907,-3.7905,-3.7885,0,-4.1239,-4.0915,-4.0661,-4.0425,-4.0233,-3.9965,-3.9804,-3.955,-3.934,-3.9137,-3.8898,-3.8665,-3.8538,-3.842,-3.8309,-3.805,-3.8005,-3.8047,-3.7739,-3.7732,-3.783,-3.7942,-3.8036,-3.8031,-3.7877,-3.7876,-3.7875,0,-4.1221,-4.0984,-4.0735,-4.0378,-4.0287,-4.015,-3.9859,-3.9673,-3.9374,-3.9227,-3.9019,-3.8809,-3.8593,-3.8507,-3.8199,-3.8235,-3.8092,-3.7945,-3.7938,-3.7895,-3.7807,-3.7898,-3.8023,-3.8023,-3.7863,-3.7864,-3.7865,0,-4.1434,-4.1049,-4.0849,-4.0715,-4.0295,-4.0204,-4.0021,-3.9723,-3.9563,-3.9305,-3.9196,-3.8913,-3.8756,-3.8537,-3.8252,-3.8217,-3.7973,-3.7863,-3.7836,-3.7844,-3.7794,-3.78,-3.7896,-3.771,-3.771,-3.771,-3.771,0,-4.1483,-4.1339,-4.094,-4.0817,-4.0644,-4.0348,-4.0182,-3.9974,-3.9712,-3.9534,-3.928,-3.9117,-3.8754,-3.8543,-3.8318,-3.8095,-3.8026,-3.7894,-3.7835,-3.7915,-3.7932,-3.7815,-3.7806,-3.771,-3.771,-3.771,-3.771,0,-4.1689,-4.1418,-4.1181,-4.0806,-4.0707,-4.0597,-4.0268,-4.0132,-3.991,-3.9689,-3.9619,-3.9266,-3.9005,-3.8702,-3.8337,-3.8185,-3.7979,-3.7894,-3.8084,-3.8049,-3.8039,-3.8043,-3.8059,-3.8043,-3.7876,-3.7878,-3.788,0,-4.1738,-4.1623,-4.1238,-4.1109,-4.0938,-4.0729,-4.0567,-4.0268,-4.0108,-3.976,-3.9664,-3.9387,-3.9149,-3.8742,-3.8445,-3.8164,-3.8067,-3.8092,-3.8022,-3.8107,-3.8062,-3.8073,-3.8056,-3.8111,-3.8114,-3.8117,-3.8119,0,-4.1851,-4.1723,-4.1507,-4.1243,-4.1061,-4.0834,-4.0596,-4.05,-4.015,-3.9981,-3.9718,-3.9535,-3.9168,-3.8892,-3.8575,-3.8372,-3.8184,-3.8145,-3.8123,-3.8201,-3.8316,-3.825,-3.8133,-3.8144,-3.8142,-3.814,-3.8139,-3.8138,-4.1975,-4.1861,-4.1574,-4.1339,-4.1132,-4.0916,-4.0771,-4.0535,-4.0314,-4.0001,-3.9834,-3.9573,-3.9269,-3.8826,-3.8631,-3.8413,-3.8349,-3.8319,-3.831,-3.8306,-3.8328,-3.8356,-3.8354,-3.8353,-3.8352,-3.8351,-3.835,0,-4.2073,-4.1877,-4.1666,-4.1347,-4.1161,-4.1014,-4.0742,-4.0592,-4.037,-4.011,-3.9884,-3.9578,-3.9309,-3.8995,-3.8702,-3.8589,-3.8495,-3.8522,-3.8524,-3.848,-3.8404,-3.8451,-3.8603,-3.8603,-3.8603,-3.8603,-3.8603,-3.8603,-4.2102,-4.19,-4.1738,-4.1425,-4.1223,-4.0977,-4.0834,-4.0629,-4.042,-4.0096,-3.9876,-3.9677,-3.939,-3.9076,-3.8819,-3.8732,-3.8634,-3.8686,-3.8574,-3.8507,-3.8486,-3.8465,-3.8508,-3.8669,-3.8669,-3.8666,-3.8666,-3.8667]},{"header":{"parameterUnit":"m.s-1","parameterCategory":1,"la1":30.2991,"la2":30.254,"lo1":-89.0895,"lo2":-89.0444,"dy":0.0017,"dx":0.0017,"nx":28,"ny":28,"refTime":"2025-07-23T09:00:00:Z","depth":0,"parameterNumber":3,"parameterNumberName":"V-component_of_WINDS"},"data":[0,0,0,0,0,0,0,0,0,0,0,0,0,0,0,0,0,0,0,0,0,0,0,0,0,0,0,0,0,0,0,0,0,0,0,0,0,0,0,0,0,0,0,0,0,0,0,0,0,0,0,0,0,0,0,0,0,0,2.781,2.7809,0,2.7721,2.772,2.7719,2.7601,2.7599,2.7597,2.7596,2.7502,2.7502,2.7501,0,0,0,0,0,0,0,0,0,0,0,0,0,2.7877,2.7877,2.781,2.7809,2.7808,2.7722,2.772,2.7719,2.7602,2.7599,2.7597,2.7595,2.7503,2.7502,2.7501,0,0,0,0,0,0,0,0,0,0,0,0,0,2.7824,2.7876,2.781,2.7739,2.7732,2.7722,2.772,2.7719,2.7602,2.7599,2.7596,2.7594,2.7503,2.7502,2.7501,2.7553,0,0,2.7498,2.7497,0,0,0,0,0,0,0,0,2.7827,2.7822,2.775,2.7744,2.7736,2.7669,2.771,2.7663,2.7603,2.7651,2.7595,2.7592,2.756,2.7554,2.7544,2.7549,2.7545,2.7498,2.7497,2.7497,2.7496,0,0,0,0,0,0,0,2.7831,2.7825,2.7775,2.775,2.7741,2.7711,2.77,2.77,2.7623,2.7647,2.7638,2.7629,2.7555,2.7545,2.7541,2.7543,2.7498,2.7497,2.7496,2.7496,2.7587,2.759,0,0,0,0,0,0,2.7846,2.7829,2.7778,2.7772,2.7775,2.7712,2.77,2.7694,2.7623,2.7609,2.7632,2.7624,2.7548,2.7542,2.7537,2.7592,2.7497,2.7496,2.7495,2.7584,2.7587,2.7591,0,0,0,0,0,0,2.7848,2.7842,2.7781,2.7798,2.7788,2.7714,2.7708,2.7693,2.7683,2.7611,2.7597,2.7635,2.7546,2.7539,2.755,2.7588,2.7495,2.7494,2.758,2.7585,2.7589,2.7705,0,0,0,0,0,0,2.785,2.7844,2.7863,2.78,2.7788,2.7796,2.771,2.7694,2.7682,2.7671,2.7611,2.7598,2.7543,2.7552,2.7549,2.7585,2.7494,2.7576,2.7582,2.7588,2.7697,2.7713,2.7726,0,0,0,0,0,2.7853,2.7898,2.7864,2.7858,2.781,2.7799,2.7792,2.7728,2.7685,2.7703,2.7658,2.76,2.7585,2.7555,2.755,2.7586,2.7574,2.7581,2.7587,2.7691,2.771,2.7726,0,0,0,0,0,0,2.7966,2.7888,2.785,2.7876,2.7845,2.7779,2.7799,2.775,2.7729,2.772,2.7641,2.7628,2.765,2.7619,2.7586,2.7633,2.7571,2.7577,2.7651,2.7668,2.7683,2.7688,2.7493,0,0,0,0,0,2.7994,2.7992,2.7924,2.7954,2.7941,2.7874,2.7866,2.782,2.7784,2.777,2.7725,2.7692,2.768,2.7673,2.7658,2.7694,2.7678,2.7716,2.7731,2.7743,2.7748,2.7764,2.778,2.7613,2.7613,2.7613,0,0,2.8052,2.8009,2.8012,2.7976,2.7946,2.7945,2.7863,2.7865,2.7863,2.777,2.7777,2.7745,2.7703,2.7727,2.7735,2.7702,2.7792,2.7752,2.7762,2.776,2.7773,2.7789,2.7803,2.7618,2.7617,2.7616,0,0,2.8155,2.8124,2.8144,2.8117,2.8074,2.803,2.8036,2.7978,2.7952,2.796,2.789,2.7887,2.7868,2.7841,2.7824,2.7923,2.7868,2.792,2.7993,2.801,2.8024,2.8035,2.8068,2.8081,2.7926,2.7927,2.7927,0,2.8231,2.8226,2.8161,2.8168,2.8154,2.8072,2.8093,2.807,2.8024,2.8016,2.7981,2.7955,2.7922,2.7938,2.7962,2.7953,2.7956,2.7924,2.8027,2.8038,2.8047,2.8078,2.8091,2.7933,2.7932,2.7932,2.7931,0,2.8322,2.832,2.8343,2.8301,2.8291,2.8304,2.8241,2.8238,2.8195,2.8154,2.8163,2.8121,2.8095,2.8097,2.8054,2.8108,2.8088,2.8042,2.7977,2.8071,2.8098,2.8109,2.7942,2.794,2.7938,2.7936,0,0,2.8488,2.8414,2.8423,2.8403,2.8352,2.8349,2.8361,2.8338,2.8336,2.8309,2.8315,2.8303,2.826,2.8242,2.8195,2.8211,2.829,2.8162,2.816,2.8185,2.8345,2.8378,2.8393,2.8256,2.8258,2.8259,2.8348,0,2.8579,2.8593,2.8536,2.8564,2.8562,2.8487,2.8497,2.8466,2.8431,2.8423,2.8383,2.8375,2.832,2.8308,2.8321,2.8278,2.832,2.8271,2.8259,2.8259,2.8268,2.8408,2.8442,2.8527,2.8359,2.836,2.8362,0,2.8685,2.8665,2.8693,2.8642,2.8639,2.8649,2.8623,2.8618,2.8583,2.8556,2.8539,2.8486,2.8493,2.8436,2.8444,2.8412,2.8404,2.8383,2.8385,2.8378,2.8313,2.8402,2.8553,2.8565,2.8378,2.8377,2.8376,0,2.88,2.8781,2.8795,2.8782,2.8723,2.8731,2.8707,2.867,2.866,2.8639,2.8632,2.8612,2.86,2.8586,2.853,2.8493,2.8545,2.8482,2.8521,2.8522,2.8531,2.853,2.8681,2.8533,2.8533,2.8533,2.8532,0,2.8905,2.8924,2.8846,2.8854,2.8875,2.8811,2.8833,2.8802,2.877,2.8771,2.8707,2.8709,2.8637,2.8631,2.8588,2.8601,2.8597,2.8574,2.8562,2.8578,2.858,2.8569,2.856,2.8536,2.8535,2.8534,2.8534,0,2.9034,2.8983,2.8993,2.8939,2.8926,2.8943,2.8896,2.8901,2.8864,2.8866,2.8863,2.8803,2.8794,2.8738,2.8715,2.8686,2.8714,2.8692,2.8726,2.8717,2.8758,2.8754,2.8903,2.8918,2.8764,2.8766,2.8767,0,2.9102,2.9115,2.9063,2.906,2.9039,2.9035,2.9026,2.8965,2.8958,2.8921,2.8932,2.8918,2.8902,2.8892,2.8845,2.8828,2.8803,2.8857,2.8799,2.8816,2.88,2.8799,2.8799,2.8867,2.8869,2.8871,2.8872,0,2.9227,2.9202,2.9191,2.9172,2.9164,2.9146,2.9124,2.9125,2.9058,2.9054,2.9044,2.9033,2.9012,2.8998,2.8974,2.8949,2.8899,2.8892,2.8899,2.8913,2.8932,2.892,2.8755,2.8887,2.8885,2.8884,2.8883,2.8883,2.9325,2.9334,2.9299,2.929,2.9268,2.925,2.9253,2.9217,2.9208,2.9186,2.9152,2.9148,2.9115,2.9078,2.9057,2.9053,2.9024,2.9035,2.9038,2.904,2.9048,2.8937,2.9049,2.9048,2.9048,2.9047,2.9047,0,2.9444,2.9419,2.9412,2.9384,2.9378,2.9335,2.931,2.9307,2.9304,2.9278,2.9266,2.9256,2.9244,2.9199,2.9182,2.9188,2.9164,2.9185,2.9182,2.9177,2.9076,2.907,2.9204,2.9204,2.9204,2.9204,2.9204,2.9204,2.9504,2.9517,2.9489,2.9491,2.9466,2.9462,2.9451,2.9434,2.9414,2.9406,2.9396,2.9368,2.9335,2.9316,2.9303,2.929,2.9286,2.9314,2.9293,2.9199,2.9184,2.9169,2.9163,2.9314,2.9314,2.9393,2.9394,2.9395]}]]